This demonstration page uses our WeatherBlox Daily Observations layout. Learn more.

Hourly Observations for December 8, 2015

Temp ( °F °C ) Dew Point ( °F °C ) Humidity (%) Winds ( mph kmh ) Pressure ( in mb ) Visibility ( mi km ) Precip ( " mm )
12:15 am 00:15 Clear 39 3.7 27 -2.7 63 63 SW 10 17 29.91 1013 10 16.0934 0 0
12:35 am 00:35 Clear 39 4 27 -2.7 62 62 SW 8 13 29.91 1013 10 16.0934 0 0
12:55 am 00:55 Clear 39 3.7 27 -2.6 64 64 SW 9 15 29.88 1012 10 16.0934 0 0
1:15 am 01:15 Clear 41 5.1 27 -3 56 56 SW 13 20 29.85 1011 10 16.0934 0 0
1:35 am 01:35 Clear 42 5.5 26 -3.1 54 54 SW 13 20 29.83 1010 10 16.0934 0 0
1:55 am 01:55 Clear 43 6 26 -3.1 52 52 SW 10 17 29.83 1010 10 16.0934 0 0
2:15 am 02:15 Clear 44 6.5 26 -3.3 50 50 SW 10 17 29.83 1010 10 16.0934 0 0
2:35 am 02:35 Clear 44 6.7 26 -3.3 49 49 SW 12 19 29.83 1010 10 16.0934 0 0
2:55 am 02:55 Clear 42 5.7 26 -3.2 53 53 SW 9 15 29.83 1010 10 16.0934 0 0
3:15 am 03:15 Clear 43 5.9 26 -3.4 52 52 SW 9 15 29.83 1010 10 16.0934 0 0
3:35 am 03:35 Clear 43 6.3 26 -3.3 51 51 SW 9 15 29.83 1010 10 16.0934 0 0
3:55 am 03:55 Clear 43 5.9 26 -3.2 52 52 SW 9 15 29.8 1009 10 16.0934 0 0
4:15 am 04:15 Partly Cloudy 44 6.5 27 -3 51 51 SW 10 17 29.77 1008 10 16.0934 0 0
4:35 am 04:35 Mostly Cloudy 45 7.1 27 -2.8 50 50 WSW 12 19 29.77 1008 10 16.0934 0 0
4:55 am 04:55 Partly Cloudy 45 7.1 27 -3 49 49 WSW 12 19 29.77 1008 10 16.0934 0 0
5:15 am 05:15 Clear 43 6.3 27 -2.8 53 53 WSW 9 15 29.8 1009 10 16.0934 0 0
5:35 am 05:35 Partly Cloudy 42 5.8 27 -2.6 55 55 SW 7 11 29.77 1008 10 16.0934 0 0
5:55 am 05:55 Partly Cloudy 42 5.8 27 -2.6 55 55 W 3 6 29.77 1008 10 16.0934 0 0
6:15 am 06:15 Partly Cloudy 42 5.6 28 -2.5 56 56 WSW 5 7 29.8 1009 10 16.0934 0 0
6:35 am 06:35 Partly Cloudy 41 5.1 28 -2.5 58 58 WSW 6 9 29.8 1009 10 16.0934 0 0
6:55 am 06:55 Clear 41 4.8 28 -2.5 60 60 WSW 5 7 29.8 1009 10 16.0934 0 0
7:15 am 07:15 Clear 40 4.5 28 -2.5 61 61 SW 6 9 29.8 1009 10 16.0934 0 0
7:35 am 07:35 Clear 41 4.8 28 -2.3 60 60 WSW 7 11 29.8 1009 10 16.0934 0 0
7:55 am 07:55 Sunny 40 4.4 28 -2.1 63 63 WSW 6 9 29.8 1009 10 16.0934 0 0
8:15 am 08:15 Sunny 40 4.2 28 -2 64 64 WSW 8 13 29.8 1009 10 16.0934 0 0
8:35 am 08:35 Sunny 41 5.1 29 -1.8 61 61 WSW 9 15 29.8 1009 10 16.0934 0 0
8:55 am 08:55 Sunny 43 6 29 -1.9 57 57 W 12 19 29.83 1010 10 16.0934 0 0
9:15 am 09:15 Sunny 43 6.1 29 -1.4 59 59 W 13 20 29.83 1010 10 16.0934 0 0
9:35 am 09:35 Sunny 45 7 31 -0.6 59 59 W 13 20 29.83 1010 10 16.0934 0 0
9:55 am 09:55 Sunny 48 9.1 32 0.1 54 54 W 13 20 29.8 1009 10 16.0934 0 0
10:15 am 10:15 Sunny 50 10.1 32 0.2 51 51 WNW 12 19 29.8 1009 10 16.0934 0 0
10:35 am 10:35 Sunny 51 10.4 33 0.3 50 50 WNW 10 17 29.8 1009 10 16.0934 0 0
10:55 am 10:55 Sunny 53 11.6 33 0.8 48 48 WNW 13 20 29.77 1008 10 16.0934 0 0
11:15 am 11:15 Sunny 54 12.4 33 0.8 45 45 NW 10 17 29.77 1008 10 16.0934 0 0
11:35 am 11:35 Sunny 57 13.7 34 1 42 42 NW 13 20 29.74 1007 10 16.0934 0 0
11:55 am 11:55 Sunny 58 14.4 34 1.1 41 41 NW 13 20 29.74 1007 10 16.0934 0 0
12:15 pm 12:15 Sunny 59 15 35 1.4 40 40 NW 15 24 29.74 1007 10 16.0934 0 0
12:35 pm 12:35 Sunny 59 15.1 34 1.3 39 39 NW 17 28 29.74 1007 10 16.0934 0 0
12:55 pm 12:55 Sunny 59 15.2 34 1.3 39 39 NW 13 20 29.74 1007 10 16.0934 0 0
1:15 pm 13:15 Sunny 60 15.8 35 1.7 39 39 NW 14 22 29.74 1007 10 16.0934 0 0
1:35 pm 13:35 Sunny 62 16.5 35 1.9 38 38 NW 15 24 29.74 1007 10 16.0934 0 0
1:55 pm 13:55 Sunny 63 17.3 35 1.5 35 35 NNW 17 28 29.74 1007 10 16.0934 0 0
2:15 pm 14:15 Sunny 64 17.5 35 1.4 34 34 NNW 17 28 29.71 1006 10 16.0934 0 0
2:35 pm 14:35 Sunny 63 17.1 34 1.1 34 34 NNW 15 24 29.74 1007 10 16.0934 0 0
2:55 pm 14:55 Sunny 63 17.1 34 1.1 34 34 NNW 12 19 29.74 1007 10 16.0934 0 0
3:15 pm 15:15 Sunny 63 17 34 1.1 34 34 NW 12 19 29.74 1007 10 16.0934 0 0
3:35 pm 15:35 Sunny 63 17.1 34 1 34 34 NW 14 22 29.74 1007 10 16.0934 0 0
3:55 pm 15:55 Sunny 63 17 32 0.1 32 32 NW 14 22 29.74 1007 10 16.0934 0 0
4:15 pm 16:15 Sunny 60 15.7 33 0.6 36 36 WNW 8 13 29.74 1007 10 16.0934 0 0
4:35 pm 16:35 Sunny 56 13.5 34 1.2 43 43 WNW 9 15 29.74 1007 10 16.0934 0 0
4:55 pm 16:55 Sunny 56 13.5 34 1.2 43 43 NW 7 11 29.8 1009 10 16.0934 0 0
5:15 pm 17:15 Clear 55 12.9 34 1 44 44 NNW 9 15 29.8 1009 10 16.0934 0 0
5:35 pm 17:35 Clear 54 12 34 0.9 47 47 NNW 9 15 29.8 1009 10 16.0934 0 0
5:55 pm 17:55 Clear 51 10.4 33 0.6 51 51 NW 7 11 29.85 1011 10 16.0934 0 0
6:15 pm 18:15 Clear 47 8.3 32 0.2 57 57 NW 8 13 29.85 1011 10 16.0934 0 0
6:35 pm 18:35 Clear 45 7.4 32 0.1 60 60 WNW 6 9 29.88 1012 10 16.0934 0 0
6:55 pm 18:55 Clear 42 5.8 32 -0.1 66 66 WNW 6 9 29.88 1012 10 16.0934 0 0
7:15 pm 19:15 Clear 41 5 32 -0.2 69 69 WNW 6 9 29.91 1013 10 16.0934 0 0
7:35 pm 19:35 Clear 41 5.1 32 0 70 70 WNW 7 11 29.91 1013 10 16.0934 0 0
7:55 pm 19:55 Clear 41 5.1 32 -0.2 69 69 WNW 5 7 29.91 1013 10 16.0934 0 0
8:15 pm 20:15 Clear 40 4.2 31 -0.5 72 72 Calm 29.94 1014 10 16.0934 0 0
8:35 pm 20:35 Clear 40 4.3 31 -0.5 71 71 W 7 11 29.94 1014 10 16.0934 0 0
8:55 pm 20:55 Clear 43 5.9 32 0 66 66 W 6 9 29.91 1013 10 16.0934 0 0
9:15 pm 21:15 Clear 41 5.1 32 -0.2 69 69 WNW 5 7 29.91 1013 10 16.0934 0 0
9:35 pm 21:35 Clear 41 5.1 32 -0.1 69 69 W 7 11 29.91 1013 10 16.0934 0 0
9:55 pm 21:55 Clear 40 4.5 31 -0.6 70 70 W 6 9 29.91 1013 10 16.0934 0 0
10:15 pm 22:15 Clear 40 4.3 31 -0.6 71 71 W 7 11 29.94 1014 10 16.0934 0 0
10:35 pm 22:35 Clear 41 4.9 31 -0.6 68 68 W 6 9 29.97 1015 10 16.0934 0 0
10:55 pm 22:55 Clear 42 5.7 31 -0.3 66 66 W 7 11 29.91 1013 10 16.0934 0 0
11:15 pm 23:15 Clear 43 6 31 -0.4 64 64 W 8 13 29.91 1013 10 16.0934 0 0
11:35 pm 23:35 Clear 41 5.1 31 -0.6 67 67 W 6 9 29.97 1015 10 16.0934 0 0
11:55 pm 23:55 Clear 38 3.4 30 -1.1 73 73 W 7 11 29.97 1015 10 16.0934 0 0

Powered by AerisWeather